N5FTL Weather Reports


Display with metric or nautical units.
time (UTC)temp
F
wind
direction
speed
MPH
gust
MPH
rain 1hr
in
rain 24hr
in
rain mn
in
humidity
%
barometer
mb
20260506062137 67 125 0.0 0.0 0.00 0.00 0.00 55 1002.7
20260506061636 68 125 0.0 0.0 0.00 0.00 0.00 55 1002.6
20260506061136 68 125 0.0 0.0 0.00 0.00 0.00 54 1002.5
20260506060637 68 125 0.0 0.0 0.00 0.00 0.00 54 1002.4
20260506060137 68 126 0.0 0.0 0.00 0.00 0.00 54 1002.3
20260506051137 67 265 0.0 0.0 0.00 0.00 0.00 62 1002.3
20260506050638 67 265 0.0 0.0 0.00 0.00 0.00 60 1002.3
20260506050136 67 265 0.0 0.0 0.00 0.00 0.00 60 1002.3
20260506044636 68 265 0.0 0.0 0.00 0.00 0.00 55 1002.5
20260506044138 68 265 0.0 0.0 0.00 0.00 0.00 55 1002.4
20260506043137 69 265 0.0 0.0 0.00 0.00 0.00 56 1002.4
20260506042137 69 265 0.0 0.0 0.00 0.00 0.00 56 1002.2
20260506041636 69 265 0.0 0.0 0.00 0.00 0.00 56 1002.2
20260506041137 69 265 0.0 0.0 0.00 0.00 0.00 56 1002.1
20260506040137 69 265 0.0 0.0 0.00 0.00 0.00 54 1002.1
20260506035636 69 265 0.0 0.0 0.00 0.00 0.00 54 1002.1
20260506035137 69 265 0.0 0.0 0.00 0.00 0.00 54 1002.1
20260506034637 70 265 0.0 0.0 0.00 0.00 0.00 53 1002.0
20260506034137 70 265 0.0 0.0 0.00 0.00 0.00 52 1002.1
20260506033637 70 265 0.0 0.0 0.00 0.00 0.00 50 1002.2
20260506032636 71 265 0.0 0.0 0.00 0.00 0.00 47 1002.3
20260506032137 71 265 0.0 0.0 0.00 0.00 0.00 46 1002.2
20260506031636 72 265 0.0 0.0 0.00 0.00 0.00 44 1002.2
20260506031136 72 265 0.0 0.0 0.00 0.00 0.00 43 1002.1
20260506030637 72 265 0.0 0.0 0.00 0.00 0.00 42 1002.1
20260506030136 73 265 0.0 0.0 0.00 0.00 0.00 42 1002.1
20260506025636 73 265 0.0 0.0 0.00 0.00 0.00 41 1002.1
20260506025137 74 265 0.0 0.0 0.00 0.00 0.00 41 1002.0
20260506024636 74 265 0.0 0.0 0.00 0.00 0.00 39 1002.1
20260506024137 74 265 0.0 0.0 0.00 0.00 0.00 37 1002.0
20260506023636 74 265 0.0 0.0 0.00 0.00 0.00 37 1001.9
20260506023137 74 265 0.0 0.0 0.00 0.00 0.00 36 1001.9
20260506022636 75 265 0.0 0.0 0.00 0.00 0.00 36 1001.8
20260506022136 76 265 0.0 0.0 0.00 0.00 0.00 35 1001.7
20260506021637 77 265 0.0 0.0 0.00 0.00 0.00 34 1001.6
20260506021136 77 265 0.0 0.0 0.00 0.00 0.00 31 1001.5
20260506020636 78 265 0.0 0.0 0.00 0.00 0.00 31 1001.5
20260506015636 79 265 0.0 0.0 0.00 0.00 0.00 30 1001.3
20260506015136 79 265 0.0 0.0 0.00 0.00 0.00 29 1001.3
20260506014636 79 269 0.0 0.0 0.00 0.00 0.00 28 1001.3
20260506014136 80 274 0.0 0.0 0.00 0.00 0.00 28 1001.2
20260506013636 80 287 0.0 0.0 0.00 0.00 0.00 28 1001.2
20260506013137 81 283 0.0 0.0 0.00 0.00 0.00 27 1001.2
20260506012636 81 286 0.0 1.0 0.00 0.00 0.00 26 1001.0
20260506012136 82 279 0.0 1.0 0.00 0.00 0.00 25 1001.0
20260506011636 82 275 0.0 2.0 0.00 0.00 0.00 25 1000.9
20260506011136 82 270 0.0 2.0 0.00 0.00 0.00 24 1000.9
20260506010636 83 265 0.0 2.0 0.00 0.00 0.00 24 1000.9
20260506005636 83 288 0.0 1.0 0.00 0.00 0.00 23 1000.9
20260506005136 83 276 0.0 1.0 0.00 0.00 0.00 22 1000.9
20260506004636 83 285 0.0 1.0 0.00 0.00 0.00 21 1000.9
20260506004136 84 263 0.0 1.0 0.00 0.00 0.00 21 1000.9
20260506003636 84 277 0.0 2.0 0.00 0.00 0.00 20 1000.9
20260506002636 84 276 0.0 2.0 0.00 0.00 0.00 20 1000.9
20260506001636 85 275 1.0 2.0 0.00 0.00 0.00 20 1000.9
20260506001136 85 276 0.0 3.0 0.00 0.00 0.00 19 1000.8
20260506000636 85 266 1.0 3.0 0.00 0.00 0.00 19 1000.7
20260506000136 85 270 1.0 3.0 0.00 0.00 0.00 19 1000.7
20260505235136 86 278 1.0 2.0 0.00 0.00 0.00 19 1000.5
20260505234636 86 284 0.0 2.0 0.00 0.00 0.00 19 1000.2
20260505234136 86 282 0.0 1.0 0.00 0.00 0.00 19 1000.1
20260505233636 86 275 0.0 1.0 0.00 0.00 0.00 19 1000.2
20260505233136 87 282 0.0 1.0 0.00 0.00 0.00 18 1000.3
20260505232136 87 280 0.0 1.0 0.00 0.00 0.00 18 999.8
20260505231136 87 266 0.0 1.0 0.00 0.00 0.00 19 999.8
20260505230636 87 274 0.0 3.0 0.00 0.00 0.00 19 1000.0
20260505230136 88 272 0.0 3.0 0.00 0.00 0.00 19 1000.0
20260505225636 88 261 0.0 2.0 0.00 0.00 0.00 19 1000.1
20260505225136 88 280 0.0 2.0 0.00 0.00 0.00 19 999.9
20260505224636 88 266 0.0 1.0 0.00 0.00 0.00 19 999.9
20260505223636 88 276 0.0 2.0 0.00 0.00 0.00 20 999.8
20260505223136 88 273 0.0 2.0 0.00 0.00 0.00 19 999.9
20260505222136 88 280 0.0 2.0 0.00 0.00 0.00 20 999.8
20260505221636 88 268 0.0 2.0 0.00 0.00 0.00 19 999.8
20260505221136 88 277 0.0 2.0 0.00 0.00 0.00 20 999.8
20260505220636 88 282 0.0 2.0 0.00 0.00 0.00 20 1000.0
20260505220136 89 284 0.0 2.0 0.00 0.00 0.00 20 1000.0
20260505215636 89 305 0.0 2.0 0.00 0.00 0.00 20 1000.0
20260505215136 89 281 1.0 2.0 0.00 0.00 0.00 20 1000.0
20260505214635 89 283 0.0 1.0 0.00 0.00 0.00 20 1000.3
20260505214136 89 282 0.0 2.0 0.00 0.00 0.00 19 1000.3
20260505213136 89 298 1.0 2.0 0.00 0.00 0.00 20 1000.0
20260505212635 90 287 0.0 1.0 0.00 0.00 0.00 19 1000.1
20260505212136 90 270 0.0 1.0 0.00 0.00 0.00 20 1000.2
20260505211635 89 280 0.0 1.0 0.00 0.00 0.00 20 1000.2
20260505211136 89 250 1.0 2.0 0.00 0.00 0.00 19 1000.1
20260505210635 89 269 1.0 3.0 0.00 0.00 0.00 20 1000.2
20260505210136 90 276 0.0 3.0 0.00 0.00 0.00 20 1000.2
20260505205635 89 287 0.0 3.0 0.00 0.00 0.00 20 1000.3
20260505205136 89 283 0.0 2.0 0.00 0.00 0.00 21 1000.3
20260505204635 90 286 0.0 2.0 0.00 0.00 0.00 20 1000.3
20260505204136 89 277 0.0 2.0 0.00 0.00 0.00 19 1000.5
20260505202635 90 283 0.0 2.0 0.00 0.00 0.00 19 1000.6
20260505202136 90 283 0.0 1.0 0.00 0.00 0.00 19 1000.6
20260505201635 90 282 0.0 1.0 0.00 0.00 0.00 19 1000.7
20260505201136 90 284 0.0 2.0 0.00 0.00 0.00 19 1000.6
20260505200635 90 272 0.0 2.0 0.00 0.00 0.00 19 1000.7
20260505200135 90 280 0.0 3.0 0.00 0.00 0.00 19 1000.7
20260505195635 90 272 0.0 3.0 0.00 0.00 0.00 20 1000.8
20260505195136 90 279 0.0 12.0 0.00 0.00 0.00 20 1000.6
20260505194635 90 263 7.0 12.0 0.00 0.00 0.00 24 1000.5
20260505194136 89 243 8.0 14.0 0.00 0.00 0.00 26 1000.5
20260505193635 89 287 4.0 15.0 0.00 0.00 0.00 25 1000.6
20260505193136 90 240 11.0 15.0 0.00 0.00 0.00 25 1000.7
20260505191635 90 265 5.0 12.0 0.00 0.00 0.00 25 1000.8
20260505191136 90 250 8.0 12.0 0.00 0.00 0.00 26 1000.9
20260505190635 89 261 0.0 12.0 0.00 0.00 0.00 26 1000.9
20260505190135 89 258 5.0 12.0 0.00 0.00 0.00 26 1000.9
20260505185635 89 250 3.0 12.0 0.00 0.00 0.00 25 1000.9
20260505185136 89 269 3.0 12.0 0.00 0.00 0.00 26 1000.8
20260505184635 89 275 6.0 12.0 0.00 0.00 0.00 25 1000.8
20260505184136 89 288 1.0 12.0 0.00 0.00 0.00 26 1000.9
20260505183635 88 257 6.0 12.0 0.00 0.00 0.00 27 1001.1
20260505183135 88 238 7.0 10.0 0.00 0.00 0.00 26 1001.2
20260505182635 88 296 6.0 12.0 0.00 0.00 0.00 26 1001.3
20260505182135 87 283 6.0 12.0 0.00 0.00 0.00 27 1001.3
20260505181635 87 258 5.0 10.0 0.00 0.00 0.00 29 1001.4
20260505181135 87 240 1.0 10.0 0.00 0.00 0.00 28 1001.4
20260505180635 87 281 0.0 9.0 0.00 0.00 0.00 31 1001.3
20260505180136 87 262 2.0 9.0 0.00 0.00 0.00 29 1001.3
20260505175635 86 245 0.0 3.0 0.00 0.00 0.00 30 1001.3
20260505175135 86 284 0.0 10.0 0.00 0.00 0.00 30 1001.5
20260505174635 86 257 5.0 10.0 0.00 0.00 0.00 30 1001.4
20260505174135 86 261 6.0 9.0 0.00 0.00 0.00 31 1001.5
20260505173635 85 280 0.0 10.0 0.00 0.00 0.00 33 1001.5
20260505173135 85 287 3.0 12.0 0.00 0.00 0.00 34 1001.5
20260505172635 85 266 3.0 12.0 0.00 0.00 0.00 36 1001.5
20260505172135 84 236 4.0 12.0 0.00 0.00 0.00 38 1001.5
20260505171635 84 242 4.0 12.0 0.00 0.00 0.00 39 1001.5
20260505171135 83 257 7.0 12.0 0.00 0.00 0.00 39 1001.6
20260505170635 83 256 0.0 12.0 0.00 0.00 0.00 40 1001.6
20260505170135 83 267 1.0 12.0 0.00 0.00 0.00 40 1001.8
20260505165635 83 274 3.0 10.0 0.00 0.00 0.00 41 1001.8
20260505165135 82 250 3.0 12.0 0.00 0.00 0.00 42 1001.8
20260505164635 82 248 6.0 12.0 0.00 0.00 0.00 41 1001.8
20260505164135 82 246 6.0 10.0 0.00 0.00 0.00 43 1001.8
20260505163635 81 241 6.0 10.0 0.00 0.00 0.00 46 1001.8
20260505163135 80 265 2.0 10.0 0.00 0.00 0.00 50 1001.8
20260505162635 80 257 3.0 12.0 0.00 0.00 0.00 50 1001.8
20260505162135 80 250 6.0 12.0 0.00 0.00 0.00 51 1001.8
20260505161635 79 250 4.0 12.0 0.00 0.00 0.00 53 1001.8
20260505161135 79 247 5.0 10.0 0.00 0.00 0.00 54 1002.0
20260505160635 78 268 0.0 7.0 0.00 0.00 0.00 56 1002.0
20260505160135 78 256 0.0 12.0 0.00 0.00 0.00 58 1002.0
20260505153135 75 238 0.0 10.0 0.00 0.00 0.00 69 1002.0
20260505152635 75 225 3.0 12.0 0.00 0.00 0.00 69 1001.8
20260505151635 74 240 3.0 9.0 0.00 0.00 0.00 71 1002.0
20260505151135 73 244 3.0 10.0 0.00 0.00 0.00 72 1002.0
20260505150635 73 238 5.0 10.0 0.00 0.00 0.00 73 1001.9
20260505150134 73 225 0.0 0.0 0.00 0.00 0.00 75 1001.9
20260505140635 69 199 0.0 1.0 0.00 0.00 0.00 82 1001.7
20260505140134 69 202 0.0 1.0 0.00 0.00 0.00 82 1001.6
20260505130134 67 205 0.0 0.0 0.00 0.00 0.00 85 1001.4
20260505124634 67 203 0.0 3.0 0.00 0.00 0.00 85 1001.2
20260505124135 66 207 0.0 3.0 0.00 0.00 0.00 85 1001.2
20260505123634 66 219 0.0 0.0 0.00 0.00 0.00 85 1001.2
20260505123134 66 219 0.0 0.0 0.00 0.00 0.00 85 1001.2
20260505122634 66 219 0.0 0.0 0.00 0.00 0.00 84 1001.1
20260505122135 66 219 0.0 0.0 0.00 0.00 0.00 84 1001.0
20260505121135 66 219 0.0 0.0 0.00 0.00 0.00 84 1000.8
20260505120634 67 219 0.0 0.0 0.00 0.00 0.00 84 1000.7
20260505115634 67 219 0.0 0.0 0.00 0.00 0.00 84 1000.9
20260505115134 67 218 0.0 0.0 0.00 0.00 0.00 83 1000.7
20260505114634 67 218 0.0 0.0 0.00 0.00 0.00 83 1000.7
20260505114135 67 218 0.0 0.0 0.00 0.00 0.00 83 1000.7
20260505113634 67 218 0.0 8.0 0.00 0.00 0.00 83 1000.6
20260505113134 67 218 0.0 8.0 0.00 0.00 0.00 83 1000.5
20260505112634 67 247 0.0 3.0 0.00 0.00 0.00 83 1000.5
20260505112134 67 196 0.0 3.0 0.00 0.00 0.00 82 1000.5
20260505111134 67 196 0.0 0.0 0.00 0.00 0.00 82 1000.5
20260505110634 67 196 0.0 0.0 0.00 0.00 0.00 82 1000.4
20260505110134 67 196 0.0 0.0 0.00 0.00 0.00 82 1000.3
20260505101634 67 235 0.0 1.0 0.00 0.00 0.00 81 1000.1
20260505101134 67 235 0.0 1.0 0.00 0.00 0.00 81 1000.1
20260505100634 67 245 0.0 0.0 0.00 0.00 0.00 81 1000.2
20260505100134 67 245 0.0 0.0 0.00 0.00 0.00 80 1000.2
20260505094634 67 312 0.0 0.0 0.00 0.00 0.00 82 1000.1
20260505094134 67 315 0.0 0.0 0.00 0.00 0.00 81 1000.0
20260505093634 67 349 0.0 0.0 0.00 0.00 0.00 80 1000.0
20260505093134 67 349 0.0 0.0 0.00 0.00 0.00 80 1000.0
20260505092634 67 349 0.0 0.0 0.00 0.00 0.00 80 1000.0
20260505092134 67 349 0.0 0.0 0.00 0.00 0.00 80 1000.0
20260505091134 67 349 0.0 0.0 0.00 0.00 0.00 80 1000.1
20260505090634 67 349 0.0 0.0 0.00 0.00 0.00 79 1000.1
20260505090134 68 349 0.0 0.0 0.00 0.00 0.00 79 1000.4
20260505085634 68 349 0.0 0.0 0.00 0.00 0.00 78 1000.3
20260505085134 68 349 0.0 0.0 0.00 0.00 0.00 78 1000.2
20260505083634 69 348 0.0 3.0 0.00 0.00 0.00 77 1000.2
20260505083134 69 251 0.0 3.0 0.00 0.00 0.00 77 1000.2
20260505082134 69 250 0.0 0.0 0.00 0.00 0.00 77 1000.5
20260505080634 69 226 0.0 9.0 0.00 0.00 0.00 76 1000.6
20260505080134 69 231 0.0 10.0 0.00 0.00 0.00 76 1000.7
20260505075634 70 196 0.0 10.0 0.00 0.00 0.00 76 1000.6
20260505074134 70 217 2.0 9.0 0.00 0.00 0.00 75 1000.6
20260505073634 70 180 2.0 10.0 0.00 0.00 0.00 74 1000.6
20260505073134 70 215 2.0 10.0 0.00 0.00 0.00 74 1000.6
20260505072634 70 209 3.0 12.0 0.00 0.00 0.00 74 1000.7
20260505072134 70 203 3.0 12.0 0.00 0.00 0.00 74 1000.7
20260505071634 71 241 1.0 12.0 0.00 0.00 0.00 74 1000.9
20260505071134 71 205 1.0 10.0 0.00 0.00 0.00 74 1000.9
20260505070634 71 221 3.0 10.0 0.00 0.00 0.00 73 1000.9
20260505070134 71 216 2.0 10.0 0.00 0.00 0.00 73 1001.0
20260505065634 71 213 3.0 10.0 0.00 0.00 0.00 73 1001.0